McHenry, MD

6:41 AM EST on February 28, 2017 (GMT -0500)
Oakland

Weather History for K2G4 - October, 2012

Change the Weather History Date:

Saturday, October 20, 2012

  Actual Average (KMGW) Record (KMGW)
Temperature  
Mean Temperature 42 °F -  
Max Temperature 44 °F 60 °F 86 °F (2016)
Min Temperature 39 °F 40 °F 18 °F (1972)
Degree Days  
Heating Degree Days 24    
Moisture  
Dew Point 39 °F    
Average Humidity 94    
Maximum Humidity 100    
Minimum Humidity 71    
Precipitation  
Precipitation 0.00 in - - ()
Sea Level Pressure  
Sea Level Pressure 29.81 in    
Wind  
Wind Speed 9 mph (WSW)    
Max Wind Speed 14 mph    
Max Gust Speed 22 mph    
Visibility 9 miles    
Events      
Averages and records for this station are not official NWS values.
T = Trace of Precipitation, MM = Missing Value Source: NWS Daily Summary

Daily Weather History Graph

Daily Weather History Graph

Search for Another Location

Airport or City:

Trip Planner

Search our weather history database for the weather conditions in past years. The results will help you decide how hot, cold, wet, or windy it might be!

Date:

Astronomy

Oct. 20, 2012 Rise Set
Actual Time 7:33 AM EDT 6:30 PM EDT
Civil Twilight 7:05 AM EDT 6:57 PM EDT
Nautical Twilight 6:34 AM EDT 7:28 PM EDT
Astronomical Twilight 6:03 AM EDT 8:00 PM EDT
Moon 1:06 PM EDT (10/20) 11:14 PM EDT (10/20)
Length of Visible Light 11h 51m
Length of Day
10h 57m
Waxing Crescent, 34% of the Moon is Illuminated
Oct 20
Waxing Crescent
Oct 21
First Quarter
Oct 29
Full
Nov 6
Last Quarter
Nov 13
New

Hourly Weather History & Observations

Time (EDT) Temp. Windchill Dew Point Humidity Pressure Visibility Wind Dir Wind Speed Gust Speed Precip Events Conditions
12:10 AM 44.6 °F 40.2 °F 39.2 °F 81% 29.76 in 10.0 mi West 8.1 mph 17.3 mph N/A   Overcast
12:30 AM 42.8 °F 38.0 °F 39.2 °F 87% 29.76 in 10.0 mi SW 8.1 mph 18.4 mph N/A   Overcast
1:15 AM 42.8 °F 38.0 °F 41.0 °F 93% 29.76 in 7.0 mi WSW 8.1 mph 17.3 mph N/A   Overcast
1:35 AM 41.0 °F 35.2 °F 41.0 °F 100% 29.75 in 5.0 mi SW 9.2 mph 18.4 mph N/A   Overcast
2:00 AM 41.0 °F 38.0 °F 41.0 °F 100% 29.75 in 5.0 mi SW 4.6 mph - N/A   Overcast
2:20 AM 41.0 °F 35.8 °F 41.0 °F 100% 29.75 in 5.0 mi SSW 8.1 mph - N/A   Overcast
2:40 AM 41.0 °F 35.8 °F 41.0 °F 100% 29.75 in 10.0 mi SW 8.1 mph - N/A   Overcast
3:00 AM 41.0 °F 35.8 °F 41.0 °F 100% 29.74 in 10.0 mi SW 8.1 mph 17.3 mph N/A   Overcast
3:25 AM 41.0 °F 35.8 °F 41.0 °F 100% 29.75 in 10.0 mi SW 8.1 mph - N/A   Overcast
3:45 AM 41.0 °F 35.8 °F 41.0 °F 100% 29.75 in 7.0 mi SW 8.1 mph - N/A   Overcast
4:05 AM 39.2 °F 34.2 °F 39.2 °F 100% 29.75 in 10.0 mi SW 6.9 mph - N/A   Overcast
4:25 AM 39.2 °F 34.2 °F 39.2 °F 100% 29.75 in 7.0 mi SW 6.9 mph - N/A   Overcast
4:50 AM 39.2 °F 33.0 °F 39.2 °F 100% 29.74 in 10.0 mi WSW 9.2 mph - N/A   Overcast
5:10 AM 39.2 °F 33.0 °F 39.2 °F 100% 29.73 in 10.0 mi WSW 9.2 mph 18.4 mph N/A   Mostly Cloudy
5:30 AM 39.2 °F 32.0 °F 39.2 °F 100% 29.72 in 10.0 mi WSW 11.5 mph 21.9 mph N/A   Mostly Cloudy
5:50 AM 39.2 °F 32.0 °F 39.2 °F 100% 29.72 in 10.0 mi WSW 11.5 mph 18.4 mph N/A   Overcast
6:15 AM 39.2 °F 32.0 °F 39.2 °F 100% 29.73 in 10.0 mi WSW 11.5 mph 18.4 mph N/A   Overcast
6:35 AM 39.2 °F 33.0 °F 39.2 °F 100% 29.74 in 10.0 mi WSW 9.2 mph 16.1 mph N/A   Overcast
7:15 AM 39.2 °F 32.5 °F 39.2 °F 100% 29.74 in 10.0 mi West 10.4 mph 18.4 mph N/A   Overcast
7:40 AM 39.2 °F 33.6 °F 39.2 °F 100% 29.74 in 10.0 mi WSW 8.1 mph 17.3 mph N/A   Mostly Cloudy
8:00 AM 39.2 °F 32.0 °F 39.2 °F 100% 29.76 in 10.0 mi West 11.5 mph 17.3 mph N/A   Overcast
8:20 AM 39.2 °F 33.0 °F 39.2 °F 100% 29.76 in 10.0 mi WSW 9.2 mph - N/A   Overcast
9:05 AM 39.2 °F 33.6 °F 39.2 °F 100% 29.78 in 10.0 mi WSW 8.1 mph 16.1 mph N/A   Overcast
9:25 AM 39.2 °F 34.2 °F 39.2 °F 100% 29.78 in 10.0 mi WSW 6.9 mph 16.1 mph N/A   Overcast
9:45 AM 41.0 °F 34.3 °F 39.2 °F 93% 29.78 in 10.0 mi WSW 11.5 mph 18.4 mph N/A   Mostly Cloudy
10:05 AM 41.0 °F 35.2 °F 39.2 °F 93% 29.78 in 10.0 mi WSW 9.2 mph 21.9 mph N/A   Scattered Clouds
10:30 AM 41.0 °F 34.7 °F 39.2 °F 93% 29.79 in 10.0 mi WSW 10.4 mph 19.6 mph N/A   Mostly Cloudy
10:50 AM 41.0 °F 34.3 °F 37.4 °F 87% 29.80 in 10.0 mi WSW 11.5 mph 18.4 mph N/A   Overcast
11:10 AM 41.0 °F 35.8 °F 39.2 °F 93% 29.80 in 10.0 mi SW 8.1 mph 17.3 mph N/A   Overcast
11:30 AM 41.0 °F 34.7 °F 39.2 °F 93% 29.81 in 10.0 mi WSW 10.4 mph - N/A   Overcast
11:55 AM 42.8 °F 35.8 °F 37.4 °F 81% 29.81 in 10.0 mi SW 13.8 mph 19.6 mph N/A   Mostly Cloudy
12:15 PM 42.8 °F 37.0 °F 37.4 °F 81% 29.81 in 10.0 mi WSW 10.4 mph 18.4 mph N/A   Mostly Cloudy
12:35 PM 44.6 °F 40.2 °F 39.2 °F 81% 29.81 in 10.0 mi SW 8.1 mph - N/A   Overcast
12:55 PM 42.8 °F 39.3 °F 37.4 °F 81% 29.81 in 10.0 mi WSW 5.8 mph - N/A   Overcast
1:20 PM 44.6 °F 39.2 °F 35.6 °F 71% 29.80 in 10.0 mi WSW 10.4 mph - N/A   Overcast
1:40 PM 44.6 °F 40.7 °F 35.6 °F 71% 29.80 in 10.0 mi West 6.9 mph - N/A   Overcast
2:00 PM 42.8 °F 37.0 °F 37.4 °F 81% 29.80 in 7.0 mi WSW 10.4 mph - N/A   Overcast
2:20 PM 44.6 °F 40.2 °F 37.4 °F 76% 29.80 in 10.0 mi SW 8.1 mph - N/A   Overcast
2:45 PM 44.6 °F 40.2 °F 37.4 °F 76% 29.80 in 10.0 mi WSW 8.1 mph - N/A   Overcast
3:05 PM 42.8 °F 36.2 °F 37.4 °F 81% 29.81 in 7.0 mi West 12.7 mph 19.6 mph N/A   Overcast
3:25 PM 41.0 °F 33.9 °F 41.0 °F 100% 29.82 in 7.0 mi WSW 12.7 mph 20.7 mph N/A   Overcast
3:45 PM 41.0 °F 34.7 °F 41.0 °F 100% 29.82 in 10.0 mi WSW 10.4 mph 17.3 mph N/A   Overcast
4:10 PM 44.6 °F 39.7 °F 41.0 °F 87% 29.81 in 10.0 mi WSW 9.2 mph - N/A   Scattered Clouds
4:30 PM 42.8 °F 36.6 °F 39.2 °F 87% 29.82 in 10.0 mi WSW 11.5 mph 18.4 mph N/A   Mostly Cloudy
4:50 PM 42.8 °F 37.0 °F 39.2 °F 87% 29.83 in 10.0 mi WSW 10.4 mph 17.3 mph N/A   Overcast
5:10 PM 42.8 °F 37.5 °F 39.2 °F 87% 29.84 in 10.0 mi WSW 9.2 mph - N/A   Overcast
5:35 PM 41.0 °F 35.2 °F 41.0 °F 100% 29.85 in 7.0 mi West 9.2 mph - N/A   Overcast
5:55 PM 41.0 °F 35.8 °F 41.0 °F 100% 29.86 in 7.0 mi West 8.1 mph - N/A   Overcast
6:15 PM 41.0 °F 34.7 °F 41.0 °F 100% 29.86 in 7.0 mi WSW 10.4 mph 16.1 mph N/A   Overcast
6:35 PM 41.0 °F 34.7 °F 41.0 °F 100% 29.87 in 10.0 mi West 10.4 mph - N/A   Overcast
7:00 PM 41.0 °F 34.3 °F 41.0 °F 100% 29.88 in 10.0 mi WSW 11.5 mph 18.4 mph N/A   Overcast
7:20 PM 39.2 °F 33.0 °F 39.2 °F 100% 29.88 in 10.0 mi WSW 9.2 mph 17.3 mph N/A   Overcast
7:40 PM 39.2 °F 33.0 °F 39.2 °F 100% 29.89 in 10.0 mi WSW 9.2 mph 17.3 mph N/A   Overcast
8:00 PM 39.2 °F 32.5 °F 39.2 °F 100% 29.89 in 10.0 mi West 10.4 mph 16.1 mph N/A   Overcast
8:25 PM 39.2 °F 33.6 °F 39.2 °F 100% 29.90 in 10.0 mi West 8.1 mph 17.3 mph N/A   Overcast
8:45 PM 39.2 °F 33.0 °F 39.2 °F 100% 29.90 in 10.0 mi WSW 9.2 mph 16.1 mph N/A   Overcast
9:50 PM 41.0 °F 37.1 °F 41.0 °F 100% 29.92 in 10.0 mi West 5.8 mph - N/A   Overcast
10:10 PM 39.2 °F 35.0 °F 39.2 °F 100% 29.92 in 10.0 mi West 5.8 mph - N/A   Overcast
10:30 PM 41.0 °F 35.2 °F 41.0 °F 100% 29.93 in 10.0 mi West 9.2 mph 16.1 mph N/A   Overcast
10:50 PM 41.0 °F 35.8 °F 41.0 °F 100% 29.93 in 10.0 mi West 8.1 mph 16.1 mph N/A   Overcast
11:15 PM 39.2 °F 33.6 °F 39.2 °F 100% 29.93 in 10.0 mi West 8.1 mph - N/A   Overcast
11:35 PM 39.2 °F 33.6 °F 39.2 °F 100% 29.93 in 10.0 mi West 8.1 mph - N/A   Overcast
11:55 PM 39.2 °F 33.6 °F 39.2 °F 100% 29.94 in 10.0 mi West 8.1 mph - N/A   Mostly Cloudy